sat.trackr.live / text

‹ back to catalog

IRIDIUM 107

NORAD 42960 · 2017-061F

PAYLOAD ACTIVE UNKNOWN

§ Identity

Operator
Country
US
Launch date
2017-10-09
Launch site
AFWTR
Launch vehicle
Mass (kg)
RCS (m²)

Purposes: comms

External: N2YO · Heavens-Above · Gunter

§ Orbital elements

Epoch: 2026-09-20T04:05:26.765088Z

Period
100.40 min
Inclination
86.4023°
Eccentricity
0.0002173
Mean motion
14.34217587 rev/d
Perigee alt
776.1 km
Apogee alt
779.2 km
Semi-major
7,155.8 km
B*
5.2614e-5
RAAN
345.5840°
Arg perigee
89.6096°
Mean anomaly
270.5348°
Rev number
46,843

§ Raw data

IRIDIUM 1071 42960U 17061F   26263.17044867  .00000167  00000+0  52614-4 0  99972 42960  86.4023 345.5840 0002173  89.6096 270.5348 14.34217587468432

JSON: /api/v1/satellites/42960 · /tle

For live sub-satellite position, see the globe view (requires WebGL).

§ Visibility from observer

Set your observer location to see the next 7 days of passes ≥ 10°. The values pass through the URL so the page stays shareable.

No JS? Fill the form by hand. The geolocation button needs JavaScript.